Theta_e
309 308 307 306 306 307 307 306 306 307 308 308 309 309 309 309 308 308 309 309 308 308 309 309 311 311 312 312 312 312 312 313 313 313 314 315 316 319 322 322 321 321 323 324 325 327 328 329 329 329 331 332 332 332 332 332 333 334 335 336 336 335 335 337 337 336 335 334 334 335 336 336 336 336 335 335 334 334 334 334 334 335 334 332 330
309 308 308 308 308 308 306 305 306 307 308 308 309 309 309 309 308 308 307 306 306 306 306 307 308 310 311 312 312 312 312 313 314 314 314 315 316 317 320 322 322 322 324 324 324 326 327 327 328 329 329 331 332 332 333 333 333 333 333 334 335 334 334 336 337 336 336 334 334 334 335 335 335 335 335 335 335 334 334 334 334 334 334 335 334
309 308 308 309 308 308 306 306 307 308 308 309 309 308 307 306 306 305 305 304 304 305 305 306 307 308 309 311 312 312 312 312 313 314 315 315 316 317 319 321 322 322 323 324 324 325 326 326 327 328 329 330 331 331 332 333 333 333 334 334 334 333 334 336 337 337 336 335 335 335 335 334 334 335 335 335 335 335 335 334 333 333 334 334 335
309 308 308 308 308 307 306 307 308 308 307 307 306 305 304 304 304 304 304 304 304 304 305 306 307 308 308 310 311 312 312 312 312 313 313 315 316 317 318 319 321 322 322 324 325 326 327 328 327 328 328 328 330 330 330 332 333 333 334 334 333 333 333 335 337 336 335 335 335 335 335 334 334 334 335 335 335 335 335 335 334 334 334 334 335
308 308 308 308 307 306 307 308 308 306 304 304 304 303 303 303 303 304 304 304 304 305 305 306 307 307 307 308 309 311 311 311 311 312 312 313 315 317 318 319 321 322 323 324 325 326 327 328 328 327 327 327 328 329 329 331 332 332 333 334 333 334 334 335 336 337 337 336 335 335 335 335 335 335 335 335 335 335 335 335 335 335 334 334 335
307 307 307 307 306 306 308 308 306 304 304 304 304 304 304 304 304 304 305 305 305 305 306 306 306 306 307 307 307 309 310 310 311 311 312 312 314 316 317 319 319 320 321 324 325 326 326 327 327 327 327 327 328 328 328 329 330 331 333 334 334 335 335 334 335 336 336 335 335 335 336 336 335 335 334 334 334 334 335 335 335 335 335 334 334
306 307 306 305 305 307 308 306 304 304 304 304 304 304 304 304 304 305 305 306 306 306 306 306 306 306 306 306 307 307 308 309 310 310 311 312 312 314 316 317 318 318 320 323 324 325 325 326 326 327 327 327 328 327 327 328 328 329 332 333 334 336 335 333 334 335 335 335 335 335 335 335 336 335 335 334 334 334 334 334 335 335 335 335 335
306 306 305 305 306 307 307 305 304 305 304 304 304 303 303 304 305 305 306 306 306 306 306 306 305 305 306 306 306 306 307 308 309 309 310 311 312 313 314 316 317 318 319 322 324 324 325 326 326 326 327 327 327 328 327 327 327 327 328 330 331 334 336 335 333 333 333 334 334 334 334 335 335 335 335 335 334 334 334 334 335 335 335 335 335
305 305 304 305 307 307 306 305 305 305 304 303 303 303 304 305 306 305 305 305 305 305 305 305 305 305 305 305 305 306 306 306 308 309 310 311 312 313 313 314 316 317 318 320 322 324 325 326 326 325 326 326 327 328 328 327 328 328 328 329 330 331 333 335 334 332 332 332 333 333 333 334 336 337 336 335 335 335 335 334 334 334 335 336 336
305 304 305 306 307 307 306 305 305 304 303 303 303 304 305 305 305 305 305 304 304 304 304 304 304 304 304 304 304 305 305 306 307 307 308 309 309 311 312 313 315 316 317 319 321 323 324 326 326 325 324 324 324 326 327 326 326 327 327 328 329 330 331 334 334 333 332 332 332 332 332 333 335 336 336 335 334 335 335 335 335 334 335 336 336
304 304 306 307 307 306 306 305 305 304 303 304 304 305 305 305 304 304 304 304 303 303 303 303 303 303 303 303 303 304 305 305 306 306 306 307 307 308 309 312 313 315 317 318 321 323 324 325 326 325 325 325 324 324 325 325 325 324 323 324 325 328 330 332 332 332 332 332 331 331 332 333 333 334 334 333 332 334 335 335 335 335 335 335 336
304 305 307 307 307 306 306 305 305 304 304 304 304 304 304 303 303 302 302 302 302 302 302 302 302 302 302 303 303 303 304 304 304 304 305 305 306 306 307 309 312 314 315 317 319 321 323 324 325 325 325 326 326 326 326 326 325 324 324 323 323 324 325 327 329 331 332 333 333 334 334 333 332 332 333 332 331 333 335 335 335 336 335 335 335
305 306 307 306 306 306 305 305 304 304 304 304 303 303 303 302 301 301 301 300 300 301 301 301 301 301 301 302 302 302 303 303 303 304 304 305 305 305 306 308 310 312 315 316 317 319 321 323 324 324 324 324 324 324 325 326 326 325 324 325 325 325 326 325 326 327 329 330 331 332 332 332 331 330 330 331 331 332 334 335 335 335 335 335 335
306 306 306 306 306 306 305 304 304 304 303 303 303 302 302 301 301 300 300 300 300 300 300 300 300 300 300 300 301 302 302 302 302 304 305 305 305 305 305 307 308 311 314 315 316 317 319 320 321 322 322 323 322 322 323 325 327 328 327 326 326 327 328 328 327 326 326 326 327 328 328 328 329 328 329 331 332 332 333 334 335 335 334 334 335
306 306 305 306 306 305 304 304 304 303 303 302 302 302 301 301 300 300 299 299 299 299 299 299 299 299 299 299 300 300 301 301 301 303 304 305 305 305 305 306 308 309 312 314 315 316 317 318 320 321 322 323 322 322 321 321 323 326 328 328 328 328 327 328 328 327 327 327 327 328 328 328 328 328 329 331 332 333 333 332 333 334 334 334 334
306 305 305 306 305 304 303 304 304 303 303 302 302 302 301 301 300 299 299 299 298 298 298 298 298 298 298 298 299 299 299 299 299 300 302 303 304 304 305 305 307 308 310 313 314 315 316 317 318 319 321 322 321 320 320 319 319 320 322 325 326 326 325 326 327 327 327 327 327 328 328 329 330 330 330 331 332 333 334 333 333 332 333 333 333
305 305 305 305 304 303 303 304 303 303 303 302 302 301 301 300 300 299 299 298 297 297 297 297 297 297 297 297 297 298 298 298 298 299 301 301 301 302 303 303 305 307 308 310 313 314 315 316 316 318 319 320 320 319 318 317 315 316 319 322 323 324 324 323 324 324 325 326 327 327 327 329 331 331 330 330 330 331 332 333 332 331 332 333 333
304 305 305 305 303 303 304 304 303 302 302 302 302 301 300 300 299 299 298 297 297 296 296 296 296 296 296 296 296 297 297 297 297 298 299 299 300 300 301 301 302 303 305 308 310 312 314 315 315 316 317 318 319 318 318 316 314 316 320 322 323 323 323 322 323 324 324 325 325 326 327 328 329 329 329 329 329 330 330 331 331 332 333 333 333
304 305 305 304 303 303 304 303 302 302 302 302 301 301 300 299 299 298 297 297 296 296 296 296 295 295 295 295 295 296 296 297 296 296 297 298 299 299 299 300 300 301 303 305 308 310 311 313 314 315 316 317 317 317 317 316 314 315 320 323 323 323 323 323 324 325 326 325 325 325 326 327 327 328 328 328 328 330 330 330 330 332 332 332 333
304 304 304 303 303 303 303 303 302 302 302 301 301 300 300 299 299 298 297 297 296 296 295 295 295 295 295 295 295 295 295 296 295 295 296 297 298 298 299 300 301 301 302 303 305 308 310 312 313 314 315 316 316 316 316 315 314 313 316 321 323 322 321 322 323 323 325 326 326 326 326 327 328 328 328 328 329 330 331 331 330 331 331 331 332
304 304 304 303 303 303 303 302 302 302 301 300 300 300 299 299 299 298 297 297 296 295 295 295 295 295 295 295 295 295 295 294 294 295 296 298 299 299 299 300 301 302 301 302 304 306 309 311 313 315 316 317 318 318 317 315 315 313 313 316 319 320 319 318 318 319 322 325 327 327 327 327 328 327 326 328 330 330 330 331 331 330 330 330 331
304 304 303 303 303 303 303 302 301 301 301 300 300 300 299 299 298 298 297 297 296 295 295 295 295 294 294 295 295 295 294 294 294 296 297 298 299 300 301 302 302 302 303 303 304 305 307 309 311 313 316 317 317 317 316 314 313 313 312 313 316 318 317 315 316 319 321 324 326 328 329 328 327 327 326 327 329 330 329 330 331 331 331 331 331
304 304 303 303 303 303 302 302 301 301 301 300 299 299 299 298 298 298 297 296 296 296 295 295 295 295 295 296 295 295 295 295 296 297 298 299 300 301 302 303 303 304 304 306 306 306 306 306 308 310 312 313 314 314 313 312 311 311 311 312 314 315 315 316 318 320 321 322 324 327 328 328 327 327 327 327 329 328 328 329 330 331 331 332 332
304 304 303 303 303 302 302 302 302 302 301 300 299 299 299 298 298 298 297 297 296 296 295 295 295 296 296 297 296 296 296 297 297 298 299 300 302 302 303 303 303 305 307 308 307 306 306 307 308 309 310 311 311 312 312 313 313 312 312 312 313 314 315 317 319 321 321 323 324 324 325 327 327 328 327 327 327 327 328 330 330 330 331 332 332
303 303 303 303 303 302 302 302 302 302 301 299 299 299 298 298 298 298 298 298 297 296 296 296 296 297 296 296 296 296 297 297 298 299 301 302 303 303 303 304 304 306 308 309 309 308 308 309 310 310 311 312 313 313 314 315 315 316 316 316 316 316 317 318 319 320 320 322 324 324 325 326 327 327 327 327 327 328 330 331 330 329 330 332 331
303 303 303 303 302 302 302 302 301 302 301 298 298 299 298 297 297 297 298 299 298 298 297 297 297 297 297 297 297 297 297 297 298 300 302 303 304 304 305 305 305 306 307 308 308 309 309 310 311 312 312 312 312 312 313 313 314 315 315 316 316 317 317 317 317 317 318 320 323 325 325 325 326 326 327 328 328 329 330 331 330 330 331 331 330
303 303 302 302 302 301 301 300 300 301 300 297 298 299 298 296 296 297 298 299 299 299 298 298 298 298 299 299 300 299 298 297 298 301 303 303 304 305 305 305 305 305 306 306 307 307 308 309 310 310 310 310 310 310 310 311 312 312 313 313 314 314 314 314 314 316 318 321 323 325 325 325 326 327 327 328 328 328 329 329 329 330 330 329 329
301 302 302 302 302 301 301 300 300 300 299 297 297 297 295 294 295 296 298 298 299 300 299 299 299 299 300 301 301 301 300 299 299 301 302 303 304 304 304 304 304 305 305 305 305 305 306 306 307 306 306 306 306 306 307 308 309 310 311 311 312 313 313 314 315 317 319 321 323 324 324 325 326 326 327 328 328 328 328 328 329 329 328 327 327
300 302 302 302 301 301 300 300 300 300 298 296 297 296 292 291 294 295 297 298 298 299 300 300 300 300 300 300 301 301 300 299 300 301 302 303 303 304 303 303 303 303 303 303 303 303 303 303 303 302 301 301 301 302 303 304 305 306 307 308 309 311 313 314 316 317 320 320 320 321 322 324 325 325 326 326 327 327 327 327 327 326 324 324 324
301 302 302 301 301 300 300 300 300 298 297 296 296 295 292 291 292 294 296 297 297 298 299 300 300 300 300 300 300 300 300 300 300 301 302 302 303 303 303 303 302 301 301 302 302 302 301 300 300 299 298 297 297 297 298 299 300 301 302 303 304 306 309 312 312 314 316 317 316 317 318 320 321 322 323 323 323 323 323 322 321 322 322 321 321
302 302 301 301 300 299 299 299 298 296 296 295 295 294 294 293 291 292 294 296 296 297 298 298 299 300 300 300 300 300 300 300 301 301 301 301 301 301 301 302 301 301 302 302 302 301 300 300 299 299 297 297 296 295 296 297 297 298 299 299 300 302 304 306 307 308 311 312 311 312 313 314 314 316 318 319 319 319 319 319 319 319 319 319 318
301 302 301 301 300 298 297 298 296 294 294 294 293 293 294 294 292 291 292 294 294 294 295 296 297 299 299 300 300 300 300 300 301 301 301 301 301 300 301 301 301 302 302 302 301 301 300 300 300 299 299 298 297 296 296 297 296 296 297 297 298 299 299 300 301 304 306 307 307 307 308 310 310 309 310 315 317 315 314 316 316 315 315 315 314
301 302 301 301 300 299 298 297 295 294 293 292 292 292 292 291 291 291 292 292 292 291 291 292 293 295 296 298 299 300 300 301 301 301 301 301 301 301 301 301 301 301 302 301 301 300 300 300 300 300 299 299 298 298 299 298 298 297 297 297 298 298 298 298 299 301 302 302 303 303 304 306 307 305 304 308 312 312 309 310 312 312 311 310 310
301 301 300 300 300 299 298 297 295 293 292 291 291 291 290 290 289 290 291 292 291 290 290 289 290 291 292 293 295 296 298 299 300 300 300 300 300 300 300 300 300 300 301 300 300 299 299 298 299 299 299 299 299 300 300 300 300 299 299 299 299 300 300 301 301 302 301 300 300 301 302 304 306 305 303 303 306 308 307 307 308 308 308 307 306
300 300 300 299 299 299 298 296 294 292 291 291 290 290 290 290 289 289 289 290 291 291 290 288 288 288 289 289 290 290 291 293 294 295 296 296 296 296 297 296 296 296 297 296 296 296 296 296 296 297 297 298 298 299 299 299 299 299 299 300 300 301 302 302 302 302 303 302 301 300 301 302 304 304 303 302 302 303 304 304 305 305 305 305 304
300 301 300 299 298 299 298 296 293 291 290 290 290 290 289 289 289 289 289 289 289 290 290 289 288 288 288 288 288 288 289 289 290 290 291 291 292 292 292 292 291 292 292 291 291 291 291 291 292 293 294 295 296 296 297 296 296 296 296 297 297 299 300 301 300 301 302 303 303 302 301 302 303 303 302 302 302 302 302 302 302 303 303 303 302
300 301 301 300 299 299 297 294 292 291 290 290 290 290 290 289 289 289 289 288 289 289 289 289 289 288 288 287 288 288 288 289 289 289 290 290 290 290 290 289 289 289 289 289 288 288 288 288 288 289 290 290 291 292 292 292 292 292 292 292 292 293 294 295 296 297 297 297 298 299 299 299 300 301 301 300 300 300 301 301 301 301 302 302 302
299 300 301 301 300 299 297 295 292 290 291 291 290 290 290 289 289 289 289 288 288 289 289 288 288 288 288 288 288 289 288 289 289 289 290 290 290 289 289 288 288 288 288 288 288 287 287 287 287 287 287 288 288 288 289 289 288 288 288 288 289 289 289 290 291 291 291 291 291 291 292 292 293 294 294 294 294 295 295 296 296 296 297 298 298
299 298 298 299 299 299 298 296 293 290 290 291 290 290 290 289 289 289 289 289 288 288 288 288 288 288 288 288 289 289 288 289 289 289 289 289 289 288 288 288 287 287 287 287 287 287 287 287 287 287 287 287 287 288 288 288 287 287 287 287 287 287 288 288 288 288 288 288 288 288 288 288 289 289 289 289 290 290 290 290 291 291 291 292 292
299 298 297 297 298 298 296 294 293 292 291 290 290 290 290 290 289 289 289 288 288 288 288 288 288 288 288 288 289 289 288 288 289 289 288 288 288 288 288 287 287 287 287 287 287 287 287 287 287 287 287 287 287 287 287 287 287 287 287 287 287 287 287 288 288 288 287 287 287 287 287 287 288 288 288 288 288 288 289 289 289 289 289 289 289
300 299 297 296 297 297 295 294 294 293 292 290 290 290 290 290 289 289 289 288 288 288 288 288 288 288 288 288 289 289 288 288 288 288 288 288 288 287 287 287 287 287 286 286 287 287 287 287 287 287 287 287 287 287 287 287 287 287 287 287 287 287 287 287 288 288 287 287 287 287 287 287 287 287 288 288 288 288 288 288 289 289 290 289 289
299 300 298 296 296 297 296 295 294 292 291 290 290 290 290 290 290 289 289 289 288 288 288 288 288 288 287 287 288 289 288 288 288 288 288 287 287 287 287 287 287 286 286 286 286 286 287 287 287 287 287 287 287 287 287 287 287 287 287 287 287 287 287 287 288 288 288 287 287 287 287 287 287 287 287 288 288 288 288 288 289 290 290 289 289
298 300 299 297 295 296 297 296 294 292 291 291 290 290 290 290 290 289 289 289 289 288 288 287 287 287 287 287 288 288 288 287 287 287 287 287 287 287 286 286 286 286 286 286 286 286 286 286 286 286 286 286 286 286 286 286 286 286 286 286 287 287 287 287 287 287 288 287 287 287 287 287 287 287 287 287 288 288 288 288 289 289 289 289 289
296 298 299 299 297 297 297 297 295 294 292 291 290 290 290 290 289 289 289 289 289 289 288 288 287 287 287 287 287 287 287 287 287 287 287 287 287 286 286 286 286 286 286 286 286 286 286 286 286 286 286 286 286 286 286 286 286 286 286 286 286 287 287 287 286 287 287 287 287 286 287 287 287 287 287 287 288 288 288 289 289 288 289 289 288
295 297 299 299 298 298 298 296 295 293 291 290 290 290 290 289 289 289 289 289 289 289 288 288 288 287 287 287 287 287 286 287 287 287 287 287 286 286 286 286 286 286 286 286 286 286 286 286 286 286 286 286 286 286 286 286 286 286 286 286 286 287 287 287 286 286 287 287 286 286 286 287 287 287 287 287 287 288 288 288 288 288 288 288 288
294 296 298 299 299 298 298 296 294 292 291 290 290 290 290 289 289 289 289 289 289 289 288 288 288 288 287 287 287 287 286 286 286 286 286 286 286 286 286 286 286 286 286 286 286 286 285 286 286 285 286 286 286 286 285 285 285 285 285 286 286 286 286 287 287 286 286 287 286 286 286 287 287 287 287 287 287 287 287 287 287 287 288 287 287
293 296 298 299 299 298 297 295 293 291 291 291 291 290 290 289 289 289 289 289 289 289 289 288 288 288 287 287 287 287 287 286 286 286 286 286 286 286 286 286 286 286 286 286 286 285 285 285 285 285 286 286 286 286 285 285 285 286 286 286 286 286 286 286 287 286 286 286 286 287 286 286 286 286 286 287 287 287 287 287 287 287 287 287 286
294 295 297 298 298 298 296 294 292 291 291 291 291 290 290 289 289 289 289 289 289 288 288 288 288 288 287 287 287 287 287 287 286 286 286 286 286 285 285 285 285 285 285 285 285 285 285 285 285 285 285 285 285 285 285 285 285 285 286 286 286 286 286 286 286 286 286 286 286 286 286 286 286 286 286 286 286 286 286 286 286 286 286 286 286
293 295 296 296 297 297 296 293 291 291 291 291 291 290 289 289 289 289 289 289 289 288 288 288 288 288 287 287 287 287 287 287 286 286 286 286 286 286 285 285 285 285 285 285 285 285 285 285 285 285 285 285 285 285 285 285 285 285 285 285 285 285 285 286 286 286 286 286 286 286 286 286 286 286 286 286 285 286 286 286 286 286 285 285 286
292 293 294 295 296 296 295 293 292 291 291 291 291 290 289 289 289 289 289 289 288 288 288 288 288 288 287 287 287 287 287 287 286 286 286 286 286 286 285 285 285 285 285 285 285 285 284 284 284 284 284 285 285 285 284 284 284 285 285 285 285 285 285 285 285 285 286 286 286 286 286 286 286 286 286 286 285 285 285 285 285 285 285 285 285
291 292 293 294 295 295 294 293 292 291 291 290 290 290 290 289 289 289 289 288 288 288 288 288 288 287 287 287 287 287 287 287 286 286 286 286 286 286 286 285 285 285 285 285 284 284 284 284 284 284 284 284 284 284 284 284 284 284 284 284 284 285 285 285 285 285 285 286 286 286 286 286 286 286 286 286 285 285 285 285 285 285 285 285 285
Wind_Speed
11 13 16 18 18 17 17 18 17 14 14 14 14 13 14 15 15 17 18 19 21 21 21 20 19 20 21 21 21 20 20 20 21 23 25 26 27 28 29 31 34 34 34 35 34 32 31 32 33 34 34 35 38 38 39 40 39 37 34 31 32 32 29 28 30 30 29 31 30 27 23 21 21 21 22 22 22 22 22 21 21 22 23 24 25
10 11 13 14 14 16 18 17 15 14 14 15 14 13 14 15 16 18 20 22 23 25 24 23 22 21 21 22 21 21 21 21 21 22 24 25 26 27 28 30 32 34 34 35 35 33 32 32 31 31 32 34 36 36 37 39 40 40 38 36 38 37 32 31 32 31 30 31 31 28 26 24 23 23 23 23 23 22 23 23 22 22 23 23 24
10 11 11 11 13 15 16 15 14 14 14 14 15 15 17 18 19 20 21 22 24 25 25 24 22 22 23 23 21 20 21 22 22 23 23 25 26 27 28 29 32 34 35 36 35 34 34 34 32 30 30 32 34 35 36 37 37 38 38 39 41 40 35 33 33 31 30 30 28 26 24 24 25 24 23 23 22 22 23 23 23 23 24 24 24
10 10 10 11 13 14 14 13 13 14 15 15 17 19 20 20 20 21 22 23 24 25 24 21 19 21 22 22 21 21 21 21 22 23 23 24 25 27 28 29 31 34 36 36 35 34 34 34 33 31 30 31 32 34 35 35 34 35 37 38 40 40 37 34 32 31 31 30 29 26 24 24 25 24 22 22 22 22 23 23 23 24 25 25 24
12 11 11 12 13 13 13 13 14 15 17 17 18 19 20 20 21 22 23 24 24 24 22 19 18 19 21 22 22 22 22 22 22 23 24 24 24 25 26 29 31 33 35 35 35 35 34 34 34 33 32 31 31 33 34 34 34 36 38 36 34 36 37 33 29 29 29 29 28 25 23 24 24 23 22 21 21 21 22 23 23 24 25 26 25
15 13 13 14 13 12 13 14 15 17 18 18 20 21 22 23 23 23 23 23 23 22 20 19 20 21 21 22 23 23 23 22 23 23 23 23 24 24 24 27 32 35 36 35 35 35 35 35 35 34 33 32 31 32 32 32 34 36 37 36 33 34 36 34 30 29 29 29 29 27 24 24 24 25 25 24 22 22 22 23 23 24 25 26 26
17 15 15 15 14 13 14 16 17 19 21 22 24 25 26 25 24 23 22 21 21 21 20 20 21 21 21 21 22 23 23 22 23 23 22 23 24 25 26 27 30 33 35 36 36 37 37 36 35 34 34 33 31 31 30 30 32 35 37 36 33 31 34 35 33 30 28 30 32 31 28 26 25 26 25 24 23 24 24 24 24 24 24 25 26
19 18 17 16 14 14 15 17 20 22 24 25 26 27 26 24 21 20 20 19 19 19 20 21 21 20 20 20 20 21 22 22 22 22 22 22 22 25 29 30 30 32 35 37 36 36 37 37 36 35 34 33 32 32 31 30 30 33 36 37 34 30 29 32 35 34 32 33 33 32 32 29 26 25 25 23 24 26 26 26 26 24 23 24 25
20 19 17 15 14 14 16 19 22 24 25 26 27 26 23 20 18 18 19 19 18 18 19 20 20 20 20 20 20 20 21 23 22 20 21 22 22 26 31 32 31 32 35 38 37 35 35 35 35 35 34 34 32 31 31 31 30 31 33 34 35 35 30 28 32 36 37 37 35 33 33 30 25 23 24 25 25 24 25 26 27 26 24 24 24
19 17 15 13 13 14 16 20 23 25 26 27 27 25 21 18 19 19 19 19 18 18 18 18 19 19 19 20 20 19 19 20 20 20 23 25 27 30 32 32 32 32 32 35 37 37 33 30 32 35 34 35 35 33 33 32 31 32 32 32 33 34 30 28 29 31 34 38 38 37 36 34 30 26 26 28 27 24 25 24 25 26 26 25 26
17 15 13 12 13 14 16 21 23 25 26 27 27 24 19 18 19 19 18 18 18 18 18 18 18 19 19 20 20 20 19 18 18 21 24 27 30 31 32 33 34 33 31 30 31 33 30 26 27 30 30 31 33 34 34 35 34 34 34 35 35 34 32 32 31 29 30 34 36 37 39 40 39 34 31 33 32 29 30 29 25 25 26 26 26
14 12 11 12 13 14 18 22 23 23 25 26 27 24 19 17 18 17 18 17 18 18 18 17 18 18 19 20 20 20 20 20 20 22 24 26 28 30 31 33 34 34 33 31 28 28 27 24 23 26 27 28 29 29 31 34 36 36 36 36 37 36 36 37 36 32 31 32 32 34 38 41 42 39 36 37 36 32 32 32 29 26 26 28 27
11 10 11 12 13 15 19 21 21 22 24 26 26 22 17 17 17 16 17 16 17 18 18 17 18 19 20 20 19 18 19 20 21 23 24 25 27 29 31 32 34 35 34 33 31 28 27 25 24 26 27 28 29 30 29 29 30 32 34 35 35 35 35 37 38 38 38 38 38 38 38 39 39 39 38 39 39 36 33 32 33 32 30 29 29
10 10 11 12 14 16 19 19 20 21 23 24 23 19 17 17 17 16 16 16 17 18 17 18 18 19 20 20 19 18 17 19 22 24 24 25 27 30 31 32 34 36 35 34 33 31 29 29 28 28 27 26 28 30 30 28 26 25 28 30 32 34 33 33 35 36 38 40 41 41 40 39 40 40 39 38 40 40 38 35 35 35 33 32 31
9 10 11 12 14 17 19 18 19 21 22 22 20 18 17 18 17 17 16 16 17 17 17 18 18 18 18 19 19 19 17 19 24 25 24 25 26 29 32 33 34 36 37 35 34 32 31 31 32 31 29 27 27 29 30 29 28 27 27 27 29 31 32 33 32 32 33 35 37 38 38 38 38 38 38 38 38 39 39 39 39 37 34 34 33
9 10 11 12 14 17 17 17 19 20 20 19 19 18 17 18 17 17 16 17 17 16 16 17 17 18 18 18 19 19 18 19 24 26 25 24 25 27 29 30 33 36 37 36 35 34 32 31 31 31 30 29 28 29 30 30 31 32 33 32 32 33 33 33 32 31 33 34 34 36 37 36 37 37 36 36 37 36 36 40 45 43 40 39 37
9 10 11 12 15 16 15 16 17 18 18 18 18 17 17 18 17 17 17 17 16 16 16 16 16 17 18 18 18 19 19 19 21 23 23 23 23 25 25 26 28 32 35 37 36 35 35 34 32 30 30 29 28 28 29 29 30 31 32 33 35 37 37 35 34 33 34 35 35 36 36 35 36 36 36 35 36 36 36 40 43 44 43 42 42
9 10 11 13 15 15 13 13 14 15 16 17 17 16 17 18 17 17 17 17 16 16 16 16 16 16 17 18 18 19 20 19 19 21 22 22 23 23 23 24 24 25 27 31 34 35 36 37 36 34 32 31 30 30 29 30 30 28 27 28 30 33 35 36 35 34 34 35 36 36 36 36 36 37 37 37 36 37 41 43 42 41 41 41 43
9 9 11 14 14 11 10 11 12 13 14 15 15 15 17 17 17 17 17 17 16 16 16 16 17 16 16 16 18 19 19 19 19 20 22 23 24 24 24 25 26 24 23 23 26 30 33 34 36 38 37 35 33 33 32 33 34 31 27 26 26 27 28 29 30 32 33 34 35 35 36 36 37 38 39 39 37 37 40 43 42 40 41 43 44
8 9 11 13 11 9 9 10 12 12 13 13 13 15 16 16 17 18 17 16 16 16 16 16 16 16 16 16 17 18 20 20 20 21 22 23 22 22 23 25 27 28 26 23 22 23 25 28 30 33 34 34 33 34 34 35 36 36 32 30 29 27 25 24 25 28 32 33 34 35 35 35 34 35 36 36 36 36 38 40 41 42 43 45 45
7 9 10 10 9 8 9 10 11 10 11 12 13 14 15 16 17 17 18 18 17 17 17 16 16 16 16 17 18 18 18 19 19 20 21 21 19 19 21 23 24 26 27 26 24 22 21 22 22 22 24 26 27 29 30 30 31 33 34 34 33 31 29 28 27 28 30 31 32 33 35 35 34 33 34 34 34 35 36 36 37 39 42 45 46
7 9 9 9 8 8 9 11 12 11 11 12 13 13 14 15 16 17 19 20 20 19 17 16 17 17 17 18 20 19 19 19 19 19 18 17 16 16 18 21 22 23 25 25 26 25 23 21 20 21 24 27 27 29 31 30 30 32 35 36 36 34 33 32 32 31 31 29 28 29 31 34 35 34 35 35 34 34 35 34 34 34 36 39 42
7 8 8 8 8 9 9 10 11 12 13 13 13 12 13 14 15 17 19 21 22 21 18 17 18 20 20 21 21 21 21 19 17 16 15 13 13 13 14 16 18 21 23 22 21 22 21 20 22 26 29 31 32 33 34 33 34 35 35 36 36 35 35 34 34 34 33 32 30 30 32 33 33 35 36 37 35 35 35 35 35 34 33 33 36
6 7 7 7 8 9 9 8 9 11 13 14 13 12 13 13 14 16 20 22 24 23 20 20 22 25 26 26 26 25 24 21 18 17 16 13 10 9 9 10 12 16 18 18 17 18 19 20 23 26 28 29 31 32 32 33 35 36 36 36 35 35 35 35 34 33 34 34 34 36 36 34 33 35 37 37 36 37 37 37 37 36 35 32 33
5 6 7 6 7 8 8 9 10 10 12 13 13 12 13 12 12 17 22 25 27 27 24 24 27 29 29 29 29 29 27 24 23 22 20 16 11 7 6 8 11 13 14 12 12 15 18 19 20 22 23 24 25 26 27 29 31 33 34 35 35 35 35 36 35 33 33 35 36 38 38 36 35 36 37 36 36 37 38 39 38 37 35 31 29
5 6 6 6 8 8 7 9 10 10 11 15 14 11 13 13 11 16 25 29 29 29 27 26 28 29 29 30 30 30 28 27 27 27 25 22 18 13 11 10 11 12 11 9 8 11 13 14 15 17 18 20 21 23 25 27 28 30 33 34 35 35 35 36 34 33 34 36 38 39 39 38 38 38 37 37 37 39 39 39 39 38 34 28 26
5 6 6 6 7 8 8 10 12 10 11 16 14 11 14 15 12 16 25 29 30 31 29 27 28 30 31 31 31 30 29 28 30 31 29 26 23 20 18 15 13 10 9 8 8 10 11 12 13 15 17 20 22 24 26 27 28 29 30 31 33 34 35 35 33 32 32 34 36 38 39 39 39 40 39 37 37 40 40 39 39 39 34 28 26
6 5 6 6 7 9 9 11 12 11 11 14 13 12 15 16 13 15 22 26 28 31 30 28 27 29 31 31 31 30 30 29 30 31 30 28 26 24 21 19 17 14 11 10 10 11 12 13 14 16 17 19 20 21 21 22 22 23 24 25 27 28 31 32 31 30 31 33 34 35 37 37 37 37 37 36 36 37 37 37 37 36 33 29 27
6 5 6 6 7 9 9 9 10 10 11 12 12 13 17 17 14 15 19 22 24 27 29 28 27 28 28 29 29 29 29 28 27 27 27 28 27 26 24 22 21 19 16 13 11 10 10 10 12 13 13 13 13 13 12 11 11 12 13 14 17 21 24 26 26 27 30 31 30 30 32 34 35 35 34 33 34 34 33 32 30 27 23 21 21
5 5 5 6 7 8 8 8 8 9 10 10 10 13 16 17 16 16 18 19 20 22 25 26 26 26 25 25 25 26 26 25 24 25 25 26 25 24 24 23 21 19 17 14 13 15 18 20 20 19 17 15 14 12 10 7 6 4 3 3 4 9 13 16 17 19 23 24 22 22 24 25 26 28 28 26 24 25 24 20 18 17 15 15 15
6 5 4 6 9 9 7 6 8 8 8 9 9 10 12 15 17 18 17 17 18 19 21 23 23 24 23 22 22 22 22 22 22 23 24 24 24 24 24 24 23 23 23 25 29 31 32 31 29 27 25 24 24 22 20 18 18 16 14 12 10 7 3 4 6 8 12 13 13 14 16 17 17 17 20 20 17 14 13 13 12 13 15 15 15
6 5 4 6 9 8 6 5 7 8 8 9 9 8 8 10 13 16 17 17 17 17 18 20 20 21 21 21 20 20 20 20 21 21 22 24 25 25 25 25 26 27 29 32 35 36 34 34 33 32 31 31 31 30 28 28 28 28 26 24 22 20 19 17 14 14 14 13 12 13 14 16 17 16 15 19 21 19 18 18 18 17 18 18 17
7 6 5 5 7 7 5 5 6 7 7 8 8 8 8 8 9 11 14 15 16 17 17 17 18 18 19 19 19 19 19 20 20 20 21 23 24 25 26 27 27 29 31 34 35 35 34 34 34 33 33 33 33 32 32 31 31 31 31 31 29 27 27 27 24 24 26 27 25 23 21 19 19 19 17 17 21 22 21 21 21 19 18 18 18
9 8 6 5 4 5 4 4 5 5 5 6 6 7 7 8 9 9 8 10 12 14 15 15 16 16 16 16 17 17 17 17 18 18 18 19 20 22 23 25 26 28 30 32 33 33 33 33 33 33 33 32 32 32 32 32 31 30 29 30 29 27 26 27 27 26 27 28 29 28 26 24 21 19 19 21 22 23 21 21 20 19 17 17 18
9 9 7 5 4 4 4 3 4 4 4 5 5 5 6 7 9 9 8 8 8 8 9 12 14 15 15 15 15 16 16 16 15 15 14 15 17 18 20 23 25 27 30 31 31 31 30 31 31 31 31 31 32 32 32 31 30 29 28 27 28 27 26 26 28 27 25 25 26 28 28 26 23 21 19 21 23 24 23 22 20 19 18 17 16
9 9 7 5 3 4 4 4 4 4 3 3 4 5 5 6 7 8 8 8 7 6 7 9 12 14 14 14 14 14 15 15 15 15 15 16 17 18 21 24 26 26 27 27 27 27 27 27 28 28 28 28 29 29 29 28 27 27 27 27 27 28 27 26 27 28 27 25 25 26 27 26 24 22 20 20 22 24 24 22 20 19 18 17 16
10 9 8 6 5 5 5 5 4 3 3 2 3 4 4 5 6 6 6 6 6 6 6 7 8 10 10 11 12 13 14 15 16 16 16 17 19 21 23 25 26 25 25 25 25 25 25 25 25 25 24 24 24 24 24 23 23 22 23 24 24 25 24 24 24 25 25 24 23 24 24 24 22 21 19 19 19 20 20 19 18 17 16 15 14
11 10 10 9 7 6 5 5 5 3 2 2 2 3 3 4 5 5 5 5 6 6 6 7 8 8 8 8 10 13 14 15 16 16 17 18 20 23 24 25 25 25 25 24 24 24 25 24 24 24 23 23 22 22 21 21 20 20 21 21 21 21 21 21 22 22 22 22 22 22 22 22 21 19 18 18 18 18 17 16 15 15 14 13 13
12 12 12 12 9 6 5 5 5 4 2 2 2 2 2 3 4 4 4 4 5 5 6 7 8 9 8 8 10 13 15 15 15 17 18 19 21 22 23 23 24 24 24 23 23 24 24 24 23 23 22 22 21 21 21 21 21 21 21 21 22 22 21 21 22 22 22 23 23 22 22 21 20 19 19 18 17 17 16 15 15 14 14 13 13
12 12 12 11 10 9 7 6 5 4 4 3 2 1 1 1 2 3 3 3 4 4 5 6 7 8 9 8 9 12 15 15 16 17 18 19 20 20 21 22 22 22 22 23 23 23 23 23 23 22 22 21 21 20 21 21 21 22 22 22 22 22 22 22 22 23 23 23 23 23 23 22 21 20 19 18 17 16 16 15 14 14 14 13 13
12 13 13 12 11 10 8 6 5 5 6 5 4 3 2 1 0 1 2 2 3 3 4 5 6 7 8 8 8 11 13 14 15 16 17 18 19 19 20 20 21 21 21 22 22 22 22 22 22 21 21 20 20 20 20 21 22 22 22 22 22 22 22 22 22 22 22 23 23 23 23 23 21 20 19 18 17 16 15 15 15 14 13 13 14
13 13 14 13 12 11 9 7 7 8 7 6 5 5 3 2 1 0 1 1 2 2 3 4 5 6 7 7 7 9 12 12 13 14 16 17 18 18 18 19 19 20 20 20 20 20 20 20 20 20 20 19 20 20 20 21 22 23 22 22 22 22 22 22 21 20 21 22 22 22 22 21 21 19 18 17 16 15 14 14 13 12 13 14 14
15 14 14 14 13 12 10 9 8 7 7 7 7 6 5 4 3 2 1 0 1 1 2 3 4 5 6 6 6 9 11 11 12 13 14 15 16 17 17 17 18 18 19 19 19 20 20 19 19 19 19 19 20 20 21 22 23 23 23 22 21 21 22 22 21 20 20 21 22 21 20 19 18 18 17 16 15 14 14 13 12 11 12 13 14
16 16 15 14 13 12 11 10 9 8 9 9 8 7 6 5 4 3 2 1 1 1 1 1 2 3 4 5 6 8 9 9 10 12 13 14 15 15 15 15 16 17 17 17 18 18 19 19 19 19 19 19 20 21 21 22 22 22 22 21 20 20 21 21 20 20 20 21 21 20 19 17 16 17 17 16 14 13 13 13 12 11 11 12 14
17 17 16 15 15 13 12 11 11 11 11 10 9 8 7 6 5 4 4 3 2 2 2 2 2 2 3 3 4 6 7 8 9 10 11 12 13 13 13 14 14 15 16 16 17 17 18 18 18 19 19 19 20 21 22 22 22 22 22 21 20 21 21 19 17 19 21 20 19 18 17 15 15 15 16 15 14 12 11 11 11 11 11 11 13
17 17 17 16 16 15 14 13 12 12 11 10 9 9 9 8 7 7 6 5 4 3 3 3 2 2 2 2 2 3 5 6 7 8 10 11 11 11 12 12 13 14 14 15 16 16 17 17 17 18 18 19 20 21 22 22 22 22 22 22 22 23 22 20 17 17 17 17 16 16 16 15 15 16 16 14 13 12 11 11 11 12 11 11 11
18 18 18 17 17 16 16 15 14 13 12 11 11 11 11 10 10 9 8 7 6 5 4 3 3 3 3 2 2 2 3 4 5 6 7 8 9 10 10 11 12 12 13 14 14 15 16 16 17 17 17 18 19 20 20 21 21 21 21 22 22 22 23 23 20 17 15 14 14 14 13 13 13 15 16 14 12 11 11 11 11 11 11 11 10
19 19 19 19 18 18 17 17 16 15 14 14 14 14 13 13 12 11 9 8 8 7 6 5 5 4 4 4 3 3 2 2 3 4 5 6 7 8 9 10 11 11 12 12 13 14 15 16 16 16 17 17 18 19 19 20 20 20 20 21 22 21 22 23 21 19 17 14 12 11 11 11 11 13 14 15 13 11 11 11 11 11 10 10 10
20 20 20 21 20 19 18 17 17 16 16 15 15 15 15 14 13 12 12 11 10 9 9 8 7 7 6 5 5 5 4 4 3 3 3 3 4 6 7 8 9 10 11 11 12 13 14 15 15 15 16 16 17 18 18 19 19 19 19 20 20 20 21 21 20 19 18 15 12 10 10 11 12 11 12 13 13 12 10 10 10 11 10 10 11
21 21 21 22 22 20 19 18 17 16 17 17 16 16 16 16 15 14 14 13 12 11 11 10 9 9 8 8 7 7 6 6 5 5 4 3 3 3 4 5 7 8 9 10 11 12 13 14 14 14 15 15 16 17 17 17 18 18 18 18 19 19 19 19 18 18 18 16 14 11 11 11 12 12 12 11 11 11 11 11 10 10 10 11 11
22 22 22 22 22 21 20 18 17 17 18 17 17 17 17 16 16 16 15 15 14 13 13 12 11 10 10 10 9 9 8 8 8 7 6 5 5 4 4 4 5 6 6 8 9 10 11 12 13 13 13 14 15 16 16 16 16 16 16 17 18 18 19 19 17 17 18 17 14 11 11 11 12 14 13 12 11 10 11 11 11 10 10 11 11
Wind_Direction
312 319 324 329 329 324 321 321 319 315 312 308 302 299 296 293 296 299 301 304 307 305 301 295 288 285 287 287 287 288 285 280 276 272 267 261 256 255 253 250 248 248 251 253 255 256 257 256 254 250 248 248 247 245 243 241 238 236 238 239 238 239 237 237 244 248 248 248 247 245 243 246 250 250 252 254 254 256 258 258 258 256 255 255 254
301 311 317 320 319 319 320 320 319 317 314 309 304 299 296 297 299 301 305 310 311 308 305 300 292 284 282 282 282 284 284 281 277 272 268 265 260 256 253 251 249 247 249 250 250 252 255 257 257 256 253 251 250 247 242 242 244 242 240 240 240 241 238 235 241 246 246 246 247 247 245 244 247 249 250 253 253 253 253 254 256 256 254 252 252
302 312 312 310 312 315 318 319 319 318 315 309 307 309 310 311 311 309 311 313 311 308 304 299 293 286 280 278 277 278 280 280 278 273 269 267 264 259 254 253 250 247 248 249 250 251 252 253 254 255 254 253 253 249 244 245 246 242 241 242 242 242 239 235 237 240 243 245 242 243 245 244 244 247 248 250 251 251 251 252 253 253 254 253 252
306 313 309 308 312 313 317 320 318 320 323 321 319 322 321 320 318 317 317 316 313 309 303 297 292 287 282 277 274 274 276 278 278 275 270 266 265 262 258 255 253 250 248 248 249 249 249 249 250 250 251 253 253 250 246 245 243 240 241 243 242 241 236 231 233 237 242 245 242 240 242 242 243 244 245 247 249 250 249 250 252 253 253 253 253
313 315 310 310 314 317 321 323 322 328 334 333 330 329 326 323 321 320 318 316 312 307 303 298 294 290 286 280 275 273 273 274 276 276 273 268 265 264 261 257 256 252 250 249 248 248 248 248 248 248 250 251 251 251 251 247 241 238 239 239 238 235 231 227 230 235 237 241 243 240 237 238 240 240 238 240 245 248 249 249 250 251 252 252 253
317 317 315 317 320 323 327 328 332 338 340 338 335 333 330 327 323 319 314 309 306 304 301 298 295 292 289 284 278 274 271 272 274 275 275 272 268 266 264 261 256 251 250 251 249 247 247 248 248 248 247 248 248 251 253 249 242 238 238 239 236 235 235 233 232 234 237 243 246 244 239 236 237 238 239 238 239 244 249 250 249 249 250 251 252
319 319 321 324 326 329 332 336 341 342 340 337 335 332 330 326 320 313 306 301 300 300 298 297 296 293 290 287 283 278 274 272 271 272 273 272 269 266 262 259 257 251 248 248 248 248 247 247 247 247 246 246 247 249 252 251 245 240 239 241 239 239 243 242 236 236 240 242 243 245 245 241 239 241 242 241 240 242 246 249 250 248 246 247 249
317 321 325 327 330 331 334 340 343 341 338 336 333 330 326 320 312 306 301 298 296 294 294 294 295 294 291 288 285 282 278 273 271 270 272 272 268 264 260 260 262 259 252 246 244 246 247 246 246 246 246 246 246 248 250 251 250 246 244 244 243 242 245 244 242 241 241 241 244 247 249 246 242 241 242 242 241 242 243 246 248 248 246 247 247
318 323 326 328 329 329 334 339 341 339 337 335 331 327 321 314 308 304 301 298 295 293 292 292 293 293 292 290 287 284 279 274 270 267 267 267 264 263 264 265 267 267 261 251 246 246 246 244 244 245 245 245 245 245 247 248 248 249 249 249 248 247 245 245 249 248 244 245 246 246 248 247 244 242 242 242 243 245 246 245 246 248 248 249 248
319 324 326 326 326 328 333 338 339 338 336 335 331 325 318 310 306 303 299 296 294 293 290 289 290 291 291 290 288 285 281 276 270 261 259 262 265 267 269 267 266 268 266 257 250 249 246 242 244 246 244 245 246 245 246 245 245 247 249 251 252 250 246 244 248 249 247 248 248 245 245 244 242 243 244 245 246 250 251 249 247 248 251 252 252
320 323 324 323 324 327 332 336 338 336 336 335 329 322 316 309 305 301 298 295 293 292 289 287 289 291 290 289 287 285 283 277 270 265 264 266 269 271 270 267 265 266 266 260 253 248 244 241 244 245 245 247 248 247 247 246 245 246 247 248 251 250 246 245 247 248 247 248 248 246 244 243 246 249 250 251 251 250 252 254 249 246 248 250 252
320 322 322 322 324 327 331 335 337 335 335 334 327 321 318 313 308 304 299 296 294 293 290 287 288 291 291 289 287 285 283 280 276 274 272 271 271 271 269 266 264 262 261 262 259 250 245 247 250 248 246 248 248 249 250 249 249 249 248 249 251 251 249 249 250 250 249 247 245 244 244 248 254 256 254 255 253 248 250 253 249 246 248 248 249
319 320 322 323 323 326 331 335 335 334 335 333 327 325 324 320 315 312 306 302 301 298 293 289 290 292 292 290 288 286 285 284 280 277 275 272 269 268 266 263 262 260 258 260 262 256 249 250 253 251 249 250 251 252 253 254 255 254 254 252 252 252 250 248 248 248 248 249 250 250 250 252 257 259 257 257 256 252 251 251 250 251 250 249 249
317 320 321 322 321 326 331 333 334 336 337 334 329 327 326 323 320 317 312 308 305 302 297 294 293 293 293 292 289 288 287 284 280 280 282 278 273 269 266 261 259 259 258 257 260 260 256 253 253 255 255 254 252 252 253 256 260 262 262 259 256 254 252 251 250 248 246 248 250 252 254 254 256 259 260 259 258 255 253 250 251 255 255 252 253
317 318 318 318 321 327 331 333 337 339 338 335 333 329 326 324 322 319 314 311 308 305 301 298 297 295 294 293 291 290 288 284 283 286 287 283 280 277 272 265 259 256 256 255 256 259 260 258 256 256 257 258 257 257 257 259 261 261 261 261 260 259 257 255 254 253 251 252 252 252 254 255 256 257 258 258 257 257 256 251 251 258 261 258 257
316 314 314 318 323 328 330 333 338 340 339 338 335 330 328 326 324 322 318 313 310 306 303 302 300 298 296 295 293 291 289 286 285 288 290 288 287 285 280 274 266 258 254 252 253 255 257 258 258 257 258 259 261 263 264 265 266 265 262 259 260 262 262 261 260 259 258 258 258 257 258 258 256 254 254 256 256 256 258 256 255 259 262 260 260
311 311 312 318 324 328 332 335 337 340 341 338 332 330 333 332 329 326 322 317 314 312 310 307 304 302 300 298 296 294 293 291 288 290 293 295 293 289 284 280 274 266 258 252 250 251 253 255 256 256 257 259 262 265 267 268 271 272 269 264 261 260 261 263 264 264 262 261 261 262 263 262 260 256 254 255 256 257 258 258 259 261 261 259 261
307 307 311 319 324 328 333 335 334 335 335 332 329 332 337 337 334 330 325 321 319 316 315 312 308 305 303 301 300 299 299 298 296 294 294 294 293 289 284 280 277 274 267 257 250 249 251 253 254 255 256 259 262 264 265 269 274 276 273 270 265 262 261 262 264 265 264 263 263 264 264 262 260 259 257 256 257 257 256 257 258 259 259 257 259
303 303 310 321 326 328 330 329 328 329 329 328 331 336 339 338 336 332 328 324 321 319 318 316 313 310 308 306 305 304 302 302 301 298 295 293 291 287 283 279 274 270 270 266 258 253 251 253 255 256 258 262 265 265 265 268 271 272 272 270 269 267 267 266 265 264 264 264 265 265 264 263 261 261 261 260 259 258 256 255 255 255 256 255 255
297 301 313 324 327 323 323 323 323 326 328 330 335 338 339 339 337 335 333 328 324 322 322 320 319 318 314 309 307 305 305 306 306 302 297 294 292 285 280 279 276 271 270 268 264 259 256 255 257 260 264 268 269 268 268 268 269 269 268 268 269 270 273 274 270 267 266 266 264 263 263 263 263 264 264 264 262 260 258 256 254 253 254 255 254
294 304 316 325 323 318 319 321 322 325 328 331 334 337 338 338 339 339 339 336 332 330 329 327 326 325 321 318 319 319 317 313 309 304 300 298 294 285 278 278 278 275 272 268 264 260 255 254 256 258 260 263 264 265 265 265 264 263 261 261 263 266 269 271 272 271 271 268 265 263 261 260 260 260 262 262 261 261 261 260 258 256 253 253 253
292 305 316 321 318 319 324 324 323 326 330 330 331 333 335 338 340 342 343 344 342 339 337 335 331 329 329 332 336 338 332 323 315 312 310 306 298 286 279 278 278 276 274 270 265 262 258 256 256 248 240 243 249 255 258 259 258 256 255 256 259 261 264 266 266 267 267 266 264 262 260 259 257 255 256 259 260 261 262 261 260 260 256 253 253
290 301 313 319 320 329 338 333 327 329 331 328 327 332 336 338 342 346 347 348 349 347 344 341 339 340 342 345 349 348 343 338 334 333 334 326 309 292 283 282 282 279 278 277 274 273 271 268 263 253 243 241 245 248 253 256 257 256 256 257 258 259 261 262 263 263 263 263 260 257 256 258 259 255 254 255 256 259 261 261 261 262 260 259 258
285 299 311 317 317 325 335 332 330 335 334 330 328 331 336 339 343 350 353 352 353 355 352 348 351 354 355 356 358 358 356 356 359 1 2 354 332 306 291 290 289 289 289 287 282 277 273 270 268 265 260 257 255 256 258 260 260 260 259 259 259 259 260 262 263 263 263 261 258 255 254 255 257 256 256 256 256 258 261 261 263 264 262 262 263
281 294 307 313 312 319 327 325 326 332 336 341 340 332 333 342 346 352 359 1 359 358 357 358 1 2 1 1 0 1 4 6 8 12 17 18 9 342 319 315 313 312 310 295 274 269 272 276 280 280 277 276 275 274 274 272 269 267 264 262 262 262 262 263 264 262 261 259 256 254 254 255 256 257 258 259 259 259 258 258 262 265 264 261 257
277 288 300 309 313 321 324 320 324 326 331 345 352 339 334 344 348 355 4 7 5 3 3 5 7 6 5 6 5 6 8 9 9 13 20 26 27 22 14 2 344 336 336 324 297 289 290 290 291 291 291 292 291 289 286 282 278 273 269 266 265 264 263 265 265 263 262 261 258 255 255 256 257 258 259 259 259 257 256 257 258 257 253 247 240
271 285 299 306 314 319 315 318 331 334 331 343 354 349 342 345 347 356 5 8 9 9 9 10 11 10 10 11 12 13 15 13 11 14 18 24 26 25 23 23 15 2 353 348 339 330 321 313 307 304 301 299 298 296 293 289 285 281 276 271 269 267 265 266 266 265 263 262 261 259 258 257 257 259 260 260 257 256 257 256 254 251 244 234 228
270 276 293 302 310 314 314 324 337 340 336 343 349 346 349 354 353 354 3 8 9 11 13 15 16 14 14 15 17 20 21 20 18 18 19 23 26 25 23 24 23 19 17 13 2 344 328 318 314 311 309 306 303 300 295 291 288 286 282 278 274 271 268 267 266 263 259 258 258 258 258 257 257 258 258 256 254 254 253 251 247 244 239 229 225
275 272 289 302 306 311 316 325 333 336 340 347 345 340 350 4 5 356 359 6 10 11 14 18 21 21 18 18 20 24 27 27 28 28 28 30 31 31 29 27 23 19 15 6 351 340 340 348 349 347 345 340 331 322 312 303 294 288 285 280 273 269 266 264 260 255 251 250 251 252 253 253 253 252 248 246 245 244 243 242 238 234 228 220 216
263 264 284 292 294 306 316 320 327 336 342 346 346 341 347 360 6 3 360 3 9 14 16 18 22 25 24 24 28 32 36 38 39 40 40 40 40 40 41 41 38 35 35 33 36 43 47 46 40 34 32 31 29 28 28 30 31 25 8 336 286 264 256 252 248 245 243 242 241 242 240 237 237 236 232 230 230 230 229 227 220 211 203 198 192
244 251 269 278 289 306 319 319 329 342 344 344 350 347 343 347 355 1 4 4 7 15 19 19 22 27 30 32 35 40 43 43 42 43 46 49 51 53 56 59 61 64 65 64 62 61 59 57 56 56 57 58 56 56 59 64 66 66 67 69 72 78 114 174 189 204 218 220 213 210 207 200 192 195 200 197 188 185 187 183 177 175 174 170 164
232 241 253 269 291 313 329 327 334 347 349 347 352 354 348 344 345 351 1 7 11 18 22 19 20 26 32 34 36 38 39 38 39 45 52 58 61 63 65 67 69 71 70 69 67 66 63 62 61 61 62 63 63 62 63 66 68 69 70 72 73 77 79 81 94 117 127 128 128 131 142 150 144 135 147 163 158 144 138 143 144 140 139 139 136
227 234 242 260 287 308 323 330 336 344 349 351 354 354 354 355 354 352 355 358 5 17 25 23 20 24 30 34 36 38 39 39 42 49 56 61 66 69 69 69 68 69 69 68 67 66 64 63 62 61 60 61 61 61 62 63 64 67 70 71 72 76 79 78 80 91 96 96 96 97 99 109 115 103 95 117 134 128 118 118 122 122 120 118 114
227 224 226 241 271 288 298 319 334 341 347 353 358 357 353 357 9 15 4 353 358 7 16 21 24 25 29 35 40 43 44 45 47 50 56 61 65 68 70 69 66 65 66 66 66 64 62 61 61 60 58 57 57 57 58 58 59 61 66 71 72 75 79 80 79 79 79 80 83 86 87 92 98 92 80 86 104 112 107 104 106 106 104 103 101
229 231 235 246 263 271 281 306 326 336 347 350 352 357 358 358 10 20 18 12 12 5 1 13 26 29 31 37 43 46 50 52 53 56 60 63 63 63 65 65 63 61 61 62 63 62 61 60 58 57 55 54 54 53 54 54 55 55 57 62 67 69 70 73 76 77 75 72 73 77 81 85 89 89 82 78 83 90 93 93 94 95 95 94 91
225 231 241 248 243 247 267 288 305 321 340 348 345 354 3 5 11 19 18 17 24 22 8 13 23 27 29 34 41 47 52 55 56 56 57 59 59 57 57 59 60 60 59 59 59 59 60 61 61 59 57 55 54 53 52 52 52 52 51 52 56 60 61 62 65 70 72 73 72 74 79 84 85 85 82 76 76 80 83 83 85 87 89 90 88
220 220 226 232 229 237 260 276 284 296 318 339 344 353 2 5 11 20 20 18 27 34 30 29 32 32 31 36 45 51 55 58 59 58 56 56 57 57 57 58 60 62 62 61 60 59 59 60 61 63 64 63 61 60 59 58 56 56 56 55 55 58 60 60 61 62 65 68 69 70 72 76 79 79 77 71 69 72 75 77 79 81 84 87 85
221 215 213 216 220 233 257 272 279 287 304 328 339 347 355 4 13 18 16 19 30 40 42 45 50 51 47 51 61 64 63 64 66 65 62 59 59 59 59 59 59 60 62 62 61 60 59 60 61 62 63 65 66 66 66 66 65 65 65 65 66 67 70 72 74 74 73 73 72 71 70 70 71 71 70 67 64 64 65 68 71 71 71 74 73
224 224 221 217 217 226 238 253 269 283 288 288 304 325 344 3 18 21 16 18 27 40 47 50 54 57 55 58 68 71 68 66 67 67 65 63 61 61 62 62 60 60 61 62 63 62 61 60 61 61 61 62 64 65 66 66 65 65 66 66 67 67 69 71 73 73 74 75 74 73 72 71 70 69 68 67 66 66 66 65 66 66 64 65 66
221 229 232 224 220 228 235 241 254 268 266 261 266 282 301 341 16 23 24 26 28 36 46 50 55 59 56 51 61 72 71 66 65 66 67 67 65 63 63 63 63 62 61 60 61 61 61 60 59 58 59 59 60 62 65 65 64 62 61 61 62 61 61 63 65 66 66 69 71 71 70 67 66 66 65 62 60 62 64 62 60 62 62 63 66
213 222 232 227 218 224 236 238 236 241 245 246 243 243 249 257 345 21 27 39 39 38 43 47 53 61 60 51 55 70 74 70 67 67 67 67 67 66 64 64 65 65 64 63 61 60 60 61 59 57 57 57 58 60 63 64 65 63 60 58 59 59 58 57 58 61 63 62 61 63 64 61 58 58 58 56 52 53 58 58 54 53 53 55 59
208 215 228 229 218 217 226 231 230 233 238 240 236 230 229 225 215 213 33 48 51 51 51 47 49 60 65 60 62 74 78 74 71 69 67 66 67 66 64 65 66 66 66 67 66 64 62 62 62 61 59 58 58 60 61 63 64 64 62 60 60 60 59 57 56 60 65 62 57 56 56 57 55 52 52 52 48 45 50 54 50 46 44 42 45
207 207 219 226 220 214 217 224 230 233 233 234 233 228 222 219 218 211 181 118 83 74 68 57 51 59 64 65 72 81 82 80 77 74 70 67 66 65 63 63 64 65 65 65 66 67 67 65 65 65 64 62 61 61 61 61 62 61 60 60 60 60 62 60 57 60 67 68 62 56 53 54 56 53 48 48 48 45 46 49 46 42 41 38 34
211 206 210 216 216 213 213 216 220 226 227 228 228 226 221 220 220 217 210 197 166 135 115 91 73 70 66 64 72 80 84 84 82 79 74 70 68 66 64 64 64 66 66 64 63 65 66 65 65 65 65 66 66 66 64 63 63 61 59 58 57 58 60 58 53 54 61 64 59 52 46 47 55 56 47 40 41 43 44 43 39 35 37 37 31
212 207 206 208 208 208 209 212 217 223 225 224 225 226 225 222 221 221 220 213 201 184 167 152 126 104 88 75 74 79 82 82 82 81 79 76 73 70 68 67 66 67 68 68 66 65 65 64 63 63 63 63 64 64 63 62 61 60 59 56 54 53 54 53 49 49 53 53 49 44 40 39 46 53 49 37 32 34 36 35 33 32 31 33 31
212 206 205 204 204 204 205 210 216 221 220 216 216 221 224 223 222 222 220 219 219 210 190 176 166 153 136 112 86 79 78 77 78 80 81 80 78 76 73 71 70 70 69 69 68 67 65 65 64 63 62 62 61 62 61 59 57 56 54 52 50 47 46 47 48 46 45 41 36 36 38 37 37 45 48 40 32 31 32 30 31 32 29 28 30
211 207 204 203 202 203 205 209 213 215 214 211 210 213 217 220 221 221 219 217 218 216 210 202 191 179 174 170 147 106 87 77 74 74 76 78 79 79 77 75 75 74 72 71 71 70 68 67 65 64 63 62 61 61 60 57 56 55 52 50 49 46 43 44 47 47 44 38 27 24 30 33 33 39 44 43 36 31 30 29 29 29 27 26 28
210 207 204 203 203 203 206 209 210 209 209 210 210 211 212 215 217 219 218 216 213 212 212 213 210 202 197 192 184 171 148 119 91 75 70 68 70 73 74 76 78 79 77 75 74 73 71 69 67 65 64 63 62 61 60 56 54 53 51 49 48 46 43 43 44 48 51 46 30 19 24 29 29 32 37 39 38 34 31 31 30 27 26 26 28
210 208 206 206 205 204 206 210 210 207 207 210 212 212 212 212 213 215 217 217 215 212 211 210 210 211 210 203 196 189 178 168 156 130 101 81 68 66 66 68 72 78 80 80 79 77 74 72 68 66 65 64 62 61 60 57 54 53 52 51 49 48 47 44 43 48 54 51 36 27 31 32 31 33 33 32 34 35 34 33 32 29 27 29 32
214 211 209 209 207 205 207 210 208 206 207 209 210 211 212 211 210 212 215 216 216 217 215 212 208 208 208 208 205 199 190 184 181 172 159 144 117 90 78 72 71 75 78 79 79 79 77 74 72 69 67 66 64 63 60 58 55 53 53 54 52 50 50 48 45 49 58 57 48 41 41 37 36 39 39 35 34 37 38 38 37 34 33 33 34
219 216 212 210 209 207 208 209 209 208 209 209 209 211 212 211 211 212 214 214 215 217 219 217 213 209 207 207 206 204 199 194 188 183 178 172 160 144 129 112 99 93 88 82 80 78 76 73 71 69 67 65 64 62 59 57 54 51 51 53 52 50 50 50 47 51 59 60 51 44 46 46 41 42 44 44 40 37 36 38 38 37 37 37 35